Location: M?digepalle
(16.1753°N, 80.3496°E)
Time: 07:21:51
(UTC+00:00)

Cosmos 2360 - Pass Details

Date: 29 October 2020
Orbit: 848 x 855 km, 70.8° (Epoch: 27 November)

Event Time Altitude Azimuth Distance (km) Brightness Sun altitude
Rises 23:30:25 0° 346° (NNW) 3,405 7.1 -16.0°
Reaches altitude 10° 23:32:52 10° 348° (NNW) 2,468 6.4 -15.4°
Maximum altitude 23:38:31 73° 73° (ENE) 885 4.4 -14.1°
Drops below altitude 10° 23:44:10 10° 158° (SSE) 2,462 7.1 -12.8°
Sets 23:46:37 0° 159° (SSE) 3,396 7.8 -12.2°
